Погода Алтай

Погода Алтай : погода сейчас, прогноз погоды и архив. Всё, что Вы хотите узнать о погоде Алтай!

Поиск расширенной информации на нашем сайте:

Другие новости

Новости СМИ2

Главная страница сайта

Новости сайта

03.07.2017

Напоминаем, что на нашем специализированном сайте Метеоцентр.Азия вы можете получить высокодетализированные автоматические прогнозы погоды по пунктам России, СНГ и мира в авиационном формате (включающие направление и скорость ветра, видимость, явления погоды, количество и форму облачности, нижнюю и верхнюю границу облачности).

Рекомендуем: купить офис в бизнес центре хамовническая слобода

Погода Алтай - сегодня

Время (UTC), дата Ветер
(°,м/с) 
Видим.   Явления Облачность Т
(°С)
Тd
(°С)
f(%) Тe
(°С)
Pmin
(гПа)
dP
(гПа)
Po
(мм)
O2
(г/м3)
Тmin Tmax R s Состояние
почвы
18 14.02.18 тихо ()   20000 м    ясно 
-25.8 -28.3 79 -26  1027.9  0.1  767  343           
21 14.02.18 тихо ()   20000 м    ясно 
-27.1 -29.8 78 -27  1027.2  -0.7  767  345           
00 15.02.18 тихо ()   20000 м    ясно 
-26.8 -29.5 78 -27  1027.1  0.1  767  345           
03 15.02.18 тихо ()   20000 м    8/8 600 м 
[Sc]
-24.5 -27.2 78 -25  1027.1  0.1  767  341  -27.2      29  неравномерный
сухой снег
100% 
06 15.02.18 310 (СЗ) н/о    н/о 
-16.3 -18.9 80 -16  1027.6  0.6  767  330           
09 15.02.18 350 (С) 20000 м  в посл. час ливневой снег  9/0 средняя 
[Ac trans]
-12 -15.1 78 -12  1028.5  768  325           
12 15.02.18 020 (С) н/о    н/о 
-14.1 -16.1 85 -14  1029.9  769  328           
18 15.02.18 тихо ()   20000 м  [диам. изморози 2 мм]  ясно 
-23.8 -26.2 81 -24  1031.9  770  342           
21 15.02.18 220 (ЮЗ) 4000 м  дымка [диам. изморози 2 мм]  ясно 
-24.3 -26.8 80 -25  1032.6  0.7  771  343           
00 16.02.18 тихо ()   2000 м  [диам. изморози 2 мм]  10/10 300 м 
[St]
-22.8 -25.1 81 -23  1033.3  0.8  772  341           
03 16.02.18 тихо ()   4000 м  слаб. ливневой снег [диам. изморози 2 мм]  10/10 600 м кучево-дожд. 
[Cb calv]
-21.3 -23.5 82 -21  1034.1  0.8  772  339  -24.9    0.0  30  неравномерный
сухой снег
100% 
06 16.02.18 230 (ЮЗ) н/о    н/о 
-15.5 -17.3 86 -16  1034.6  0.6  773  332           
12 16.02.18 230 (ЮЗ) н/о    н/о 
-11.1 -13.6 82 -13  1034.5  -0.3  773  326           
18 16.02.18 250 (З) 20000 м    10/10 300 м 
[St]
-9.3 -10.6 90 -12  1033.6  -0.7  772  323           
21 16.02.18 240 (ЮЗ) 20000 м  [диам. изморози 1 мм]  ясно 
-13.2 -14.4 91 -17  1032.9  -0.7  771  328           
00 17.02.18 240 (ЮЗ) 20000 м  [диам. изморози 3 мм]  ясно 
-14.6 -16.1 88 -17  1032.2  -0.8  771  330           
03 17.02.18 230 (ЮЗ) 20000 м  [диам. изморози 3 мм]  ясно 
-16.1 -17.7 87 -18  1031.7  -0.5  770  331  -16.1      30  неравномерный
сухой снег
100% 
06 17.02.18 240 (ЮЗ) н/о    н/о 
-13.5 -15.4 86 -16  1031.4  -0.3  770  328  -16.1         
09 17.02.18 240 (ЮЗ) 20000 м  [диам. изморози 0 мм]  1/0 верхняя 
[Ci sp]
-9.6 -13.1 76 -13  1030.8  -0.5  770  323           
12 17.02.18 230 (ЮЗ) н/о    н/о 
-9.4 -12.7 77 -12  1029.9  -0.9  769  322           
18 17.02.18 230 (ЮЗ) 20000 м    10/10 600 м 
[Sc]
-9.9 -12.4 82 -12  1027.9  -1.4  768  322           
21 17.02.18 220 (ЮЗ) 4000 м  слаб. ливневой снег  10/10 600 м кучево-дожд. 
[Cb calv]
-9.4 -10.9 89 -11  1026.6  -1.2  767  321           
00 18.02.18 240 (ЮЗ) 4000 м  слаб. ливневой снег  10/10 600 м кучево-дожд. 
[Cb calv]
-8.7 -9.8 92 -10  1026.1  -0.5  766  320           
03 18.02.18 260 (З) 20000 м  {ливн. осадки}  8/8 600 м кучево-дожд. 
[Cb calv]
-8.2 -9.4 91 -10  1026.3  0.2  767  319  -10.7    0.8  31  неравномерный
сухой снег
100% 
06 18.02.18 250 (З) н/о    н/о 
-8.7 -11.3 81 -12  1026.3  767  320           
Время (UTC), дата Ветер
(°,м/с) 
Видим.   Явления Облачность Т
(°С)
Тd
(°С)
f(%) Тe
(°С)
Pmin
(гПа)
dP
(гПа)
Po
(мм)
O2
(г/м3)
Тmin Tmax R s Состояние
почвы

Для получения пояснительной информации подведите курсор к названию столбца.

ПОГОДА Алтай - архив

Всё, что Вы хотите узнать о погоде Алтай - удобно и подробно!

Выберите нужную дату (начиная с 1 января 2015* года) и нажмите кнопку "Найти".
Будут отображены архивные сводки погоды по пункту Алтай, начиная с указанной даты.


Отображать данные в формате CSV (для использования в таблицах Excel)


Внимание! Наш архив погоды предназначен исключительно для личного некоммерческого использования в познавательных целях. Если Вам необходимы официальные справки о состоянии погоды (для производственных, юридических, коммерческих и т.п. целей), обращайтесь в органы Росгидромета.

*Примечание: данная дата относится к архиву по метеостанциям СССР (Россия, СНГ, Балтия).
Архив по метеостанциям Зарубежной Европы и Азии (кроме Китая) хранится 10 дней, по другим регионам земного шара (Китай, Африка, Америка, Австралия, Океания) - 1 день.

Алтай - район местоположения метеостанции


Название, широта, долгота, высота метеостанции:
Алтай 60.3°ш. 68.9°д. 30 м над ур. моря [Российская Федерация]

Дополнительная информация

В oтличие oт бoльшинства пoгoдных сайтoв мы публикуем пoдрoбную метеoинфoрмацию в детальнoм прoфессиoнальнoм фoрмате.

Характеристики температуры и влажнoсти вoздуха измеряются на высoте 2 м в тени вдали oт зданий и деревьев.
Скoрoсть ветра измеряется на высoте 10 м (на урoвне рoста челoвека скoрoсть ветра ниже в 1.5-2 раза). Если метеoстанция нахoдится в гoрoде или в лесу, тo скoрoсть ветра занижена на 2-4 м/с пo сравнению с oткрытым местoм. Скoрoсть ветра над акватoриями крупных рек и oзёр, а также на вершинах хoлмoв на 2-5 м/с выше, чем в oбычных услoвиях.
Атмoсфернoе давление в разных тoчках местнoсти мoжет значительнo oтличаться oт давления на метеoстанции, в зависимoсти oт услoвий рельефа (при пoдъёме на 10 м давление пoнижается примернo на 1 мм рт.ст.).